Estherville, IA

6:45 AM CDT on September 26, 2017 (GMT -0500)
Estherville Municipal

Weather History for KEST - March, 2011

Change the Weather History Date:

Friday, March 11, 2011

  Actual Average Record
Temperature  
Mean Temperature 36 °F -  
Max Temperature 46 °F - 70 °F (1967)
Min Temperature 26 °F - -8 °F (1969)
Degree Days  
Heating Degree Days 29    
Month to date heating degree days 457  
Since 1 July heating degree days 6290  
Cooling Degree Days 0 0  
Month to date cooling degree days 0 0  
Year to date cooling degree days 0 0  
Moisture  
Dew Point 30 °F    
Average Humidity 81    
Maximum Humidity 92    
Minimum Humidity 70    
Precipitation  
Precipitation 0.00 in - 0.60 in (1951)
Month to date precipitation T  
Year to date precipitation 0.55  
Sea Level Pressure  
Sea Level Pressure 29.85 in    
Wind  
Wind Speed 20 mph (SSW)    
Max Wind Speed 40 mph    
Max Gust Speed 53 mph    
Visibility 8 miles    
Events      
T = Trace of Precipitation, MM = Missing Value Source: NWS Daily Summary

Daily Weather History Graph

Daily Weather History Graph

Search for Another Location

Airport or City:

Trip Planner

Search our weather history database for the weather conditions in past years. The results will help you decide how hot, cold, wet, or windy it might be!

Date:

Astronomy

Mar. 11, 2011 Rise Set
Actual Time 6:38 AM CST 6:20 PM CST
Civil Twilight 6:10 AM CST 6:48 PM CST
Nautical Twilight 5:37 AM CST 7:21 PM CST
Astronomical Twilight 5:03 AM CST 7:55 PM CST
Moon 9:39 AM CST (3/11) 12:28 AM CST (3/11)
Length of Visible Light 12h 38m
Length of Day
11h 41m
Waxing Crescent, 38% of the Moon is Illuminated
Mar 11
Waxing Crescent
Mar 12
First Quarter
Mar 19
Full
Mar 26
Last Quarter
Apr 3
New

Hourly Weather History & Observations

Time (CST) Temp. Windchill Dew Point Humidity Pressure Visibility Wind Dir Wind Speed Gust Speed Precip Events Conditions
12:52 AM 26.1 °F 16.2 °F 25.0 °F 96% 30.14 in 5.0 mi South 10.4 mph - N/A   Clear
1:52 AM 26.1 °F 14.0 °F 24.1 °F 92% 30.11 in 4.0 mi SSE 15.0 mph - N/A   Clear
2:52 AM 27.0 °F 15.6 °F 25.0 °F 92% 30.07 in 5.0 mi South 13.8 mph - N/A   Clear
3:52 AM 27.0 °F 15.6 °F 24.1 °F 89% 30.04 in 5.0 mi SSE 13.8 mph - N/A   Clear
4:52 AM 27.0 °F 15.2 °F 24.1 °F 89% 30.01 in 5.0 mi SSE 15.0 mph - N/A   Clear
5:52 AM 28.0 °F 16.5 °F 24.1 °F 85% 29.98 in 6.0 mi SSE 15.0 mph - N/A   Clear
6:52 AM 28.0 °F 16.5 °F 24.1 °F 85% 29.95 in 5.0 mi SSE 15.0 mph - N/A   Clear
7:52 AM 30.0 °F 17.2 °F 25.0 °F 82% 29.91 in 6.0 mi SSE 20.7 mph - N/A   Haze
8:52 AM 33.1 °F 20.3 °F 27.0 °F 78% 29.89 in 7.0 mi South 24.2 mph 31.1 mph N/A   Clear
9:52 AM 35.1 °F 23.0 °F 28.9 °F 78% 29.84 in 8.0 mi South 24.2 mph 31.1 mph N/A   Clear
10:52 AM 37.0 °F 24.9 °F 30.0 °F 76% 29.80 in 9.0 mi South 27.6 mph - N/A   Clear
11:52 AM 39.0 °F 28.3 °F 32.0 °F 76% 29.78 in 9.0 mi South 24.2 mph 29.9 mph N/A   Clear
12:52 PM 39.9 °F 30.0 °F 34.0 °F 79% 29.75 in 9.0 mi South 21.9 mph 25.3 mph N/A   Clear
1:52 PM 42.1 °F 33.6 °F 36.0 °F 79% 29.73 in 9.0 mi South 18.4 mph - N/A   Clear
2:52 PM 44.1 °F 38.1 °F 39.0 °F 82% 29.73 in 9.0 mi SSW 11.5 mph - N/A   Clear
3:13 PM 44.6 °F 36.4 °F 37.4 °F 76% 29.72 in 10.0 mi West 20.7 mph 28.8 mph N/A   Clear
3:52 PM 45.0 °F 37.9 °F 37.0 °F 74% 29.76 in 10.0 mi West 16.1 mph 26.5 mph N/A   Clear
4:08 PM 42.8 °F 35.1 °F 35.6 °F 76% 29.74 in 10.0 mi West 16.1 mph - N/A   Mostly Cloudy
4:24 PM 41.0 °F 32.2 °F 35.6 °F 81% 29.74 in 10.0 mi West 18.4 mph 26.5 mph N/A   Scattered Clouds
5:52 PM 39.9 °F 31.4 °F 34.0 °F 79% 29.78 in 10.0 mi West 16.1 mph - N/A   Clear
6:52 PM 39.9 °F 30.5 °F 32.0 °F 73% 29.78 in 10.0 mi West 19.6 mph - N/A   Clear
7:52 PM 39.0 °F 31.0 °F 32.0 °F 76% 29.77 in 10.0 mi West 13.8 mph - N/A   Partly Cloudy
8:52 PM 39.9 °F 28.0 °F 30.9 °F 70% 29.76 in 10.0 mi West 32.2 mph 43.7 mph N/A   Mostly Cloudy
9:35 PM 35.6 °F 22.3 °F 30.2 °F 81% 29.74 in 10.0 mi West 31.1 mph 47.2 mph N/A   Overcast
9:52 PM 35.1 °F 22.0 °F 28.9 °F 78% 29.78 in 10.0 mi West 28.8 mph 38.0 mph N/A   Overcast
10:52 PM 33.1 °F 19.1 °F 28.0 °F 82% 29.79 in 10.0 mi West 29.9 mph 38.0 mph N/A   Overcast
11:52 PM 30.9 °F 15.7 °F 25.0 °F 79% 29.83 in 10.0 mi WNW 32.2 mph 41.4 mph N/A   Overcast